AFR874 HTKJ-LFPG

Flight info

Callsign AFR874
Flight time N/A
Altitude 36000
Route OKNE2D OKNES UL434 KV UA727 UTATA UT946 NV UN556 NAK UM308 GWZ UT446 BDR UT124 ALRAP M565 SISID Z822 KUNAK L321 KUNKI P751 METRU TUMBO OVVER RODON VAKSU AMUGO BAXON SRN OMETO TERSI AOSTA ORSUD MOLUS UNKIR GIVRI TINIL TINI9W
Aircraft B772/H-SDE2E3FGHIJ5LORVWXY/LB1D1

Departure

Time N/A
Airport Kilimanjaro International Airport (HTKJ)

Arrival

Time 2026-05-04 09:39
Airport Charles de Gaulle International Airport (LFPG)
Time Latitude Longitude Altitude Speed Heading
2026-05-04 03:49 18.34735 34.17647 35902 ft 481 kts 333°
2026-05-04 03:50 18.40844 34.14897 35901 ft 481 kts 333°
2026-05-04 03:50 18.46998 34.12126 35900 ft 481 kts 333°
2026-05-04 03:51 18.53143 34.09356 35902 ft 481 kts 333°
2026-05-04 03:51 18.59300 34.06579 35901 ft 481 kts 333°
2026-05-04 03:52 18.65398 34.03826 35911 ft 480 kts 333°
2026-05-04 03:52 18.71539 34.01051 35909 ft 480 kts 333°
2026-05-04 03:53 18.77672 33.98278 35891 ft 479 kts 333°
2026-05-04 03:53 18.83798 33.95505 35905 ft 479 kts 333°
2026-05-04 03:54 18.89911 33.92737 35900 ft 478 kts 333°
2026-05-04 03:54 18.95982 33.89986 35910 ft 478 kts 332°
2026-05-04 03:55 19.02085 33.87217 35900 ft 477 kts 332°
2026-05-04 03:55 19.08179 33.84450 35907 ft 476 kts 332°
2026-05-04 03:56 19.14226 33.81703 35903 ft 476 kts 332°
2026-05-04 03:56 19.20309 33.78937 35908 ft 476 kts 332°
2026-05-04 03:57 19.26383 33.76173 35926 ft 476 kts 332°
2026-05-04 03:57 19.32473 33.73399 35915 ft 476 kts 332°
2026-05-04 03:58 19.41593 33.69240 35911 ft 476 kts 332°
2026-05-04 03:58 19.47637 33.66482 35915 ft 476 kts 332°
2026-05-04 03:59 19.53720 33.63703 35914 ft 476 kts 332°
2026-05-04 03:59 19.59803 33.60922 35930 ft 476 kts 331°
2026-05-04 04:00 19.65881 33.58141 35921 ft 476 kts 331°
2026-05-04 04:00 19.71923 33.55375 35920 ft 476 kts 331°
2026-05-04 04:01 19.78001 33.52589 35919 ft 476 kts 331°
2026-05-04 04:01 19.84077 33.49801 35921 ft 475 kts 331°
2026-05-04 04:02 19.90147 33.47013 35934 ft 475 kts 331°
2026-05-04 04:02 19.96172 33.44243 35924 ft 475 kts 331°
2026-05-04 04:03 20.02230 33.41456 35922 ft 474 kts 331°
2026-05-04 04:03 20.08273 33.38673 35924 ft 473 kts 331°
2026-05-04 04:04 20.14317 33.35887 35932 ft 473 kts 331°
2026-05-04 04:04 20.20316 33.33119 35948 ft 473 kts 330°
2026-05-04 04:05 20.26357 33.30330 35941 ft 473 kts 330°
2026-05-04 04:05 20.32398 33.27539 35937 ft 473 kts 330°
2026-05-04 04:06 20.38431 33.24749 35941 ft 473 kts 330°
2026-05-04 04:06 20.44428 33.21973 35939 ft 473 kts 330°
2026-05-04 04:07 20.50463 33.19177 35960 ft 473 kts 330°
2026-05-04 04:07 20.56499 33.16378 35950 ft 473 kts 330°
2026-05-04 04:08 20.62536 33.13576 35940 ft 473 kts 330°
2026-05-04 04:08 20.68526 33.10794 35948 ft 472 kts 330°
2026-05-04 04:09 20.74551 33.07994 35946 ft 472 kts 330°
2026-05-04 04:09 20.80563 33.05196 35963 ft 472 kts 330°
2026-05-04 04:10 20.86580 33.02395 35960 ft 472 kts 329°
2026-05-04 04:10 20.92555 32.99609 35954 ft 471 kts 329°
2026-05-04 04:11 20.98565 32.96806 35959 ft 471 kts 329°
2026-05-04 04:11 21.04565 32.94004 35965 ft 471 kts 329°
2026-05-04 04:12 21.10577 32.91195 35968 ft 471 kts 329°
2026-05-04 04:12 21.16533 32.88408 35975 ft 471 kts 329°
2026-05-04 04:13 21.22538 32.85597 35976 ft 471 kts 329°
2026-05-04 04:13 21.28552 32.82779 35976 ft 472 kts 329°
2026-05-04 04:14 21.34569 32.79956 35979 ft 472 kts 329°
2026-05-04 04:14 21.40539 32.77154 35983 ft 472 kts 329°
2026-05-04 04:15 21.46557 32.74327 35991 ft 472 kts 329°
2026-05-04 04:15 21.52573 32.71498 35987 ft 472 kts 329°
2026-05-04 04:16 21.58579 32.68671 35990 ft 471 kts 329°
2026-05-04 04:16 21.64538 32.65863 35988 ft 471 kts 329°
2026-05-04 04:17 21.70533 32.63037 35989 ft 470 kts 329°
2026-05-04 04:17 21.76518 32.60212 36003 ft 470 kts 328°
2026-05-04 04:18 21.82511 32.57380 35992 ft 469 kts 328°
2026-05-04 04:18 21.88436 32.54579 35986 ft 468 kts 328°
2026-05-04 04:19 21.94389 32.51760 35980 ft 467 kts 328°
2026-05-04 04:19 22.00329 32.48945 35988 ft 466 kts 328°
2026-05-04 04:20 22.06202 32.46023 36019 ft 464 kts 326°
2026-05-04 04:20 22.12000 32.43052 35984 ft 465 kts 326°
2026-05-04 04:21 22.17846 32.40064 35991 ft 465 kts 326°
2026-05-04 04:21 22.23700 32.37085 35985 ft 465 kts 326°
2026-05-04 04:22 22.29554 32.34111 35989 ft 465 kts 326°
2026-05-04 04:22 22.35368 32.31154 35984 ft 465 kts 326°
2026-05-04 04:23 22.41222 32.28174 35993 ft 465 kts 326°
2026-05-04 04:23 22.47062 32.25198 35977 ft 464 kts 326°
2026-05-04 04:24 22.52892 32.22226 35980 ft 463 kts 326°
2026-05-04 04:24 22.58668 32.19275 35976 ft 462 kts 326°
2026-05-04 04:25 22.64475 32.16307 35975 ft 461 kts 326°
2026-05-04 04:25 22.70279 32.13337 35976 ft 461 kts 326°
2026-05-04 04:26 22.76080 32.10367 35976 ft 461 kts 326°
2026-05-04 04:26 22.81836 32.07416 35978 ft 460 kts 326°
2026-05-04 04:27 22.87615 32.04451 35981 ft 460 kts 325°
2026-05-04 04:27 22.93401 32.01480 35979 ft 460 kts 325°
2026-05-04 04:28 22.99183 31.98508 36012 ft 460 kts 325°
2026-05-04 04:28 23.04924 31.95553 35992 ft 460 kts 325°
2026-05-04 04:29 23.10705 31.92576 35988 ft 460 kts 325°
2026-05-04 04:29 23.16481 31.89598 35986 ft 459 kts 325°
2026-05-04 04:30 23.22212 31.86643 35987 ft 459 kts 325°
2026-05-04 04:30 23.27976 31.83671 35992 ft 458 kts 325°
2026-05-04 04:31 23.33732 31.80700 35989 ft 458 kts 324°
2026-05-04 04:31 23.39487 31.77727 36001 ft 457 kts 324°
2026-05-04 04:32 23.45229 31.74756 36000 ft 456 kts 324°
2026-05-04 04:32 23.50919 31.71809 36000 ft 455 kts 324°
2026-05-04 04:33 23.56636 31.68846 36006 ft 454 kts 324°
2026-05-04 04:33 23.62343 31.65884 36022 ft 454 kts 324°
2026-05-04 04:34 23.68054 31.62917 36013 ft 455 kts 324°
2026-05-04 04:34 23.73721 31.59970 36021 ft 455 kts 324°
2026-05-04 04:35 23.79436 31.56996 36017 ft 455 kts 324°
2026-05-04 04:35 23.85158 31.54015 36021 ft 456 kts 324°
2026-05-04 04:36 23.90848 31.51048 36034 ft 456 kts 324°
2026-05-04 04:36 23.96589 31.48051 36029 ft 458 kts 324°
2026-05-04 04:37 24.08084 31.42041 36026 ft 458 kts 324°
2026-05-04 04:38 24.13833 31.39027 36033 ft 458 kts 324°
2026-05-04 04:38 24.19542 31.36031 36033 ft 458 kts 324°
2026-05-04 04:39 24.25285 31.33013 36038 ft 457 kts 324°
2026-05-04 04:39 24.31024 31.29995 36042 ft 457 kts 324°
2026-05-04 04:40 24.36753 31.26979 36046 ft 457 kts 324°
2026-05-04 04:40 24.42447 31.23977 36040 ft 457 kts 324°
2026-05-04 04:41 24.48177 31.20955 36047 ft 457 kts 324°
2026-05-04 04:41 24.53906 31.17930 36060 ft 457 kts 324°
2026-05-04 04:42 24.59636 31.14901 36056 ft 457 kts 324°
2026-05-04 04:42 24.65327 31.11889 36063 ft 457 kts 324°
2026-05-04 04:43 24.71057 31.08854 36060 ft 457 kts 324°
2026-05-04 04:43 24.76784 31.05817 36063 ft 457 kts 324°
2026-05-04 04:44 24.82519 31.02773 36066 ft 458 kts 324°
2026-05-04 04:44 24.88217 30.99745 36071 ft 458 kts 324°
2026-05-04 04:45 24.93948 30.96697 36071 ft 457 kts 324°
2026-05-04 04:47 25.13850 30.86089 36088 ft 453 kts 324°
2026-05-04 04:47 25.19515 30.83060 36088 ft 452 kts 324°
2026-05-04 04:48 25.25166 30.80037 36084 ft 451 kts 324°
2026-05-04 04:49 25.39203 30.72513 36098 ft 449 kts 324°
2026-05-04 04:49 25.44821 30.69501 36147 ft 449 kts 324°
2026-05-04 04:50 25.50772 30.67050 36112 ft 462 kts 332°
2026-05-04 04:50 25.56870 30.64965 36107 ft 461 kts 332°
2026-05-04 04:51 25.62978 30.62808 36113 ft 460 kts 332°
2026-05-04 04:51 25.69082 30.60670 36119 ft 460 kts 332°
2026-05-04 04:52 25.75197 30.58535 36149 ft 461 kts 332°
2026-05-04 04:52 25.81319 30.56391 36127 ft 461 kts 332°
2026-05-04 04:53 25.87406 30.54256 36132 ft 462 kts 332°
2026-05-04 04:53 25.93537 30.52104 36136 ft 462 kts 332°
2026-05-04 04:54 25.99671 30.49947 36144 ft 462 kts 332°
2026-05-04 04:54 26.05796 30.47792 36170 ft 463 kts 332°
2026-05-04 04:55 26.11898 30.45641 36153 ft 463 kts 332°
2026-05-04 04:55 26.18035 30.43477 36152 ft 462 kts 332°
2026-05-04 04:56 26.24163 30.41313 36163 ft 462 kts 332°
2026-05-04 04:56 26.30279 30.39151 36172 ft 461 kts 332°
2026-05-04 04:57 26.36397 30.36985 36173 ft 462 kts 332°
2026-05-04 04:57 26.42474 30.34832 36165 ft 461 kts 332°
2026-05-04 04:58 26.48579 30.32667 36167 ft 460 kts 332°
2026-05-04 04:58 26.54652 30.30461 36167 ft 458 kts 331°
2026-05-04 04:59 26.60707 30.28235 36210 ft 458 kts 332°
2026-05-04 04:59 26.66767 30.26012 36183 ft 459 kts 332°
2026-05-04 05:00 26.72785 30.23807 36179 ft 459 kts 332°
2026-05-04 05:01 26.81881 30.20454 36188 ft 459 kts 332°
2026-05-04 05:01 26.87945 30.18200 36184 ft 459 kts 331°
2026-05-04 05:02 26.93977 30.15955 36188 ft 460 kts 332°
2026-05-04 05:02 27.00051 30.13695 36185 ft 460 kts 332°
2026-05-04 05:03 27.06138 30.11429 36185 ft 460 kts 332°
2026-05-04 05:04 27.18255 30.06908 36185 ft 460 kts 332°
2026-05-04 05:04 27.24333 30.04637 36188 ft 460 kts 332°
2026-05-04 05:06 27.48549 29.95560 36207 ft 459 kts 332°
2026-05-04 05:07 27.54612 29.93281 36189 ft 459 kts 332°
2026-05-04 05:07 27.60667 29.91004 36190 ft 458 kts 332°
2026-05-04 05:09 27.87794 29.80761 36190 ft 456 kts 332°
2026-05-04 05:10 27.93805 29.78486 36182 ft 455 kts 332°
2026-05-04 05:10 27.99760 29.76227 36181 ft 454 kts 332°
2026-05-04 05:11 28.05737 29.73958 36215 ft 453 kts 331°
2026-05-04 05:11 28.11721 29.71683 36192 ft 453 kts 331°
2026-05-04 05:12 28.17682 29.69415 36179 ft 452 kts 331°
2026-05-04 05:12 28.23595 29.67162 36182 ft 451 kts 331°
2026-05-04 05:13 28.29536 29.64895 36179 ft 450 kts 331°
2026-05-04 05:13 28.35472 29.62628 36183 ft 450 kts 331°
2026-05-04 05:14 28.41401 29.60361 36180 ft 450 kts 331°
2026-05-04 05:14 28.47329 29.58092 36180 ft 449 kts 331°
2026-05-04 05:15 28.53211 29.55837 36180 ft 449 kts 331°
2026-05-04 05:15 28.59129 29.53567 36195 ft 449 kts 331°
2026-05-04 05:16 28.65047 29.51292 36182 ft 449 kts 331°
2026-05-04 05:16 28.70928 29.49031 36165 ft 449 kts 331°
2026-05-04 05:17 28.76830 29.46759 36166 ft 448 kts 331°
2026-05-04 05:17 28.82728 29.44484 36162 ft 447 kts 331°
2026-05-04 05:18 28.88617 29.42211 36223 ft 446 kts 331°
2026-05-04 05:18 28.94466 29.39949 36172 ft 447 kts 331°
2026-05-04 05:19 29.00350 29.37673 36161 ft 446 kts 331°
2026-05-04 05:19 29.06226 29.35397 36158 ft 446 kts 331°
2026-05-04 05:20 29.11886 29.32752 36157 ft 433 kts 322°
2026-05-04 05:20 29.16906 29.29199 36181 ft 422 kts 314°
2026-05-04 05:21 29.21577 29.25134 36166 ft 422 kts 314°
2026-05-04 05:21 29.26254 29.21063 36151 ft 423 kts 314°
2026-05-04 05:22 29.30940 29.17005 36148 ft 423 kts 314°
2026-05-04 05:22 29.35636 29.12943 36151 ft 423 kts 314°
2026-05-04 05:23 29.40299 29.08904 36149 ft 423 kts 314°
2026-05-04 05:23 29.44986 29.04829 36143 ft 423 kts 314°
2026-05-04 05:24 29.49663 29.00737 36196 ft 423 kts 314°
2026-05-04 05:24 29.54334 28.96643 36148 ft 423 kts 314°
2026-05-04 05:25 29.59009 28.92542 36137 ft 422 kts 314°
2026-05-04 05:25 29.63632 28.88484 36138 ft 421 kts 314°
2026-05-04 05:26 29.68281 28.84399 36131 ft 420 kts 314°
2026-05-04 05:26 29.72920 28.80316 36134 ft 420 kts 314°
2026-05-04 05:28 29.91411 28.63996 36150 ft 419 kts 315°
2026-05-04 05:29 29.96027 28.59910 36150 ft 418 kts 315°
2026-05-04 05:29 30.00602 28.55855 36147 ft 417 kts 315°
2026-05-04 05:31 30.18924 28.39565 36150 ft 416 kts 315°
2026-05-04 05:32 30.23514 28.35473 36157 ft 417 kts 315°
2026-05-04 05:33 30.30398 28.29326 36135 ft 417 kts 315°
2026-05-04 05:33 30.34976 28.25232 36147 ft 416 kts 315°
2026-05-04 05:34 30.39523 28.21161 36135 ft 416 kts 315°
2026-05-04 05:34 30.44093 28.17062 36196 ft 415 kts 315°
2026-05-04 05:35 30.48669 28.12956 36154 ft 415 kts 315°
2026-05-04 05:35 30.53200 28.08885 36133 ft 414 kts 315°
2026-05-04 05:36 30.57741 28.04799 36130 ft 412 kts 315°
2026-05-04 05:36 30.62262 28.00727 36140 ft 410 kts 315°
2026-05-04 05:37 30.66758 27.96671 36133 ft 409 kts 315°
2026-05-04 05:37 30.71246 27.92617 36130 ft 408 kts 315°
2026-05-04 05:38 30.77934 27.86567 36153 ft 408 kts 315°
2026-05-04 05:38 30.82416 27.82506 36135 ft 408 kts 315°
2026-05-04 05:39 30.89106 27.76438 36133 ft 408 kts 315°
2026-05-04 05:40 30.95815 27.70339 36128 ft 408 kts 315°
2026-05-04 05:40 31.00290 27.66265 36128 ft 408 kts 315°
2026-05-04 05:41 31.04767 27.62184 36125 ft 409 kts 315°
2026-05-04 05:41 31.09247 27.58097 36156 ft 409 kts 315°
2026-05-04 05:42 31.13310 27.53618 36128 ft 402 kts 307°
2026-05-04 05:42 31.16781 27.48569 36116 ft 397 kts 300°
2026-05-04 05:43 31.19863 27.43223 36115 ft 397 kts 300°
2026-05-04 05:45 31.32889 27.22371 36135 ft 406 kts 311°
2026-05-04 05:47 31.51779 27.07401 36117 ft 412 kts 320°
2026-05-04 05:47 31.56507 27.03864 36117 ft 411 kts 320°
2026-05-04 05:48 31.61151 27.00377 36121 ft 410 kts 320°
2026-05-04 05:48 31.65881 26.96820 36121 ft 409 kts 320°
2026-05-04 05:49 31.70579 26.93282 36122 ft 409 kts 320°
2026-05-04 05:49 31.75308 26.89716 36127 ft 409 kts 320°
2026-05-04 05:51 31.94341 26.75324 36131 ft 409 kts 320°
2026-05-04 05:52 31.99113 26.71705 36141 ft 410 kts 320°
2026-05-04 05:52 32.03886 26.68081 36178 ft 410 kts 320°
2026-05-04 05:54 32.22949 26.53557 36130 ft 408 kts 320°
2026-05-04 05:55 32.27711 26.49918 36142 ft 408 kts 320°
2026-05-04 05:55 32.32466 26.46279 36191 ft 407 kts 321°
2026-05-04 05:56 32.37229 26.42629 36154 ft 407 kts 321°
2026-05-04 05:56 32.41937 26.39018 36133 ft 407 kts 321°
2026-05-04 05:57 32.46665 26.35386 36147 ft 406 kts 320°
2026-05-04 05:57 32.51391 26.31751 36135 ft 406 kts 320°
2026-05-04 05:58 32.56123 26.28107 36128 ft 406 kts 320°
2026-05-04 05:58 32.60854 26.24458 36143 ft 406 kts 321°
2026-05-04 05:59 32.65554 26.20830 36148 ft 406 kts 321°
2026-05-04 05:59 32.70284 26.17174 36137 ft 406 kts 321°
2026-05-04 06:00 32.75010 26.13516 36143 ft 405 kts 321°
2026-05-04 06:00 32.79727 26.09860 36139 ft 404 kts 321°
2026-05-04 06:01 32.84399 26.06234 36135 ft 404 kts 321°
2026-05-04 06:03 33.03230 25.91572 36130 ft 406 kts 321°
2026-05-04 06:05 33.24420 25.74984 36141 ft 405 kts 321°
2026-05-04 06:06 33.29133 25.71281 36133 ft 405 kts 321°
2026-05-04 06:06 33.33843 25.67576 36135 ft 405 kts 321°
2026-05-04 06:07 33.38550 25.63867 36132 ft 405 kts 321°
2026-05-04 06:07 33.43257 25.60155 36135 ft 405 kts 321°
2026-05-04 06:08 33.47921 25.56472 36153 ft 404 kts 321°
2026-05-04 06:08 33.52624 25.52751 36141 ft 405 kts 321°
2026-05-04 06:09 33.57327 25.49027 36142 ft 405 kts 321°
2026-05-04 06:11 33.76055 25.34147 36139 ft 404 kts 321°
2026-05-04 06:13 33.94776 25.19190 36140 ft 405 kts 321°
2026-05-04 06:14 34.11649 25.06787 36146 ft 408 kts 325°
2026-05-04 06:15 34.16555 25.03342 36141 ft 408 kts 325°
2026-05-04 06:15 34.21459 24.99883 36127 ft 408 kts 325°
2026-05-04 06:16 34.26353 24.96423 36140 ft 407 kts 325°
2026-05-04 06:16 34.31207 24.92984 36139 ft 407 kts 324°
2026-05-04 06:17 34.36090 24.89520 36161 ft 407 kts 325°
2026-05-04 06:17 34.40971 24.86053 36143 ft 407 kts 325°
2026-05-04 06:18 34.45854 24.82581 36135 ft 407 kts 325°
2026-05-04 06:20 34.65313 24.68693 36147 ft 406 kts 325°
2026-05-04 06:21 34.77452 24.59992 36141 ft 406 kts 325°
2026-05-04 06:22 34.82317 24.56496 36138 ft 406 kts 325°
2026-05-04 06:25 35.16377 24.31885 36153 ft 407 kts 325°
2026-05-04 06:26 35.21239 24.28351 36156 ft 407 kts 326°
2026-05-04 06:26 35.26112 24.24804 36156 ft 408 kts 326°
2026-05-04 06:27 35.38293 24.15918 36152 ft 409 kts 326°
2026-05-04 06:28 35.43180 24.12345 36158 ft 409 kts 326°
2026-05-04 06:28 35.48066 24.08766 36173 ft 409 kts 326°
2026-05-04 06:29 35.52928 24.05200 36154 ft 410 kts 326°
2026-05-04 06:29 35.57823 24.01605 36155 ft 410 kts 326°
2026-05-04 06:30 35.62707 23.98014 36164 ft 409 kts 326°
2026-05-04 06:30 35.67593 23.94415 36167 ft 409 kts 326°
2026-05-04 06:31 35.72475 23.90813 36200 ft 409 kts 326°
2026-05-04 06:31 35.77332 23.87225 36183 ft 410 kts 326°
2026-05-04 06:33 35.96887 23.72727 36164 ft 411 kts 326°
2026-05-04 06:34 36.01778 23.69088 36174 ft 410 kts 326°
2026-05-04 06:34 36.06665 23.65447 36171 ft 410 kts 326°
2026-05-04 06:36 36.26139 23.50881 36193 ft 409 kts 326°
2026-05-04 06:37 36.31018 23.47218 36180 ft 410 kts 326°
2026-05-04 06:37 36.35904 23.43545 36175 ft 411 kts 326°
2026-05-04 06:38 36.40757 23.39891 36166 ft 410 kts 326°
2026-05-04 06:40 36.60253 23.25157 36178 ft 412 kts 327°
2026-05-04 06:40 36.65151 23.21441 36174 ft 412 kts 327°
2026-05-04 06:41 36.70053 23.17718 36172 ft 413 kts 327°
2026-05-04 06:41 36.74125 23.14620 36172 ft 413 kts 327°
2026-05-04 06:42 36.79828 23.10275 36156 ft 413 kts 327°
2026-05-04 06:44 36.99431 22.95267 36184 ft 416 kts 327°
2026-05-04 06:44 37.04363 22.91486 36175 ft 415 kts 327°
2026-05-04 06:45 37.08446 22.88356 36186 ft 414 kts 327°
2026-05-04 06:45 37.13347 22.84584 36173 ft 413 kts 327°
2026-05-04 06:46 37.18232 22.80817 36177 ft 413 kts 327°
2026-05-04 06:46 37.23116 22.77043 36163 ft 411 kts 327°
2026-05-04 06:48 37.42473 22.62033 36182 ft 409 kts 327°
2026-05-04 06:50 37.61797 22.46959 36195 ft 410 kts 327°
2026-05-04 06:51 37.66645 22.43161 36183 ft 409 kts 327°
2026-05-04 06:51 37.71479 22.39370 36194 ft 410 kts 327°
2026-05-04 06:52 37.76298 22.35585 36175 ft 411 kts 327°
2026-05-04 06:52 37.81153 22.31764 36188 ft 411 kts 327°
2026-05-04 06:53 37.86009 22.27938 36214 ft 411 kts 327°
2026-05-04 06:53 37.90875 22.24097 36187 ft 412 kts 327°
2026-05-04 06:54 37.95713 22.20273 36173 ft 413 kts 327°
2026-05-04 06:54 38.00594 22.16408 36188 ft 414 kts 327°
2026-05-04 06:55 38.05491 22.12524 36165 ft 415 kts 327°
2026-05-04 06:55 38.10384 22.08638 36184 ft 414 kts 327°
2026-05-04 06:57 38.29819 21.93140 36178 ft 412 kts 327°
2026-05-04 06:58 38.34666 21.89259 36179 ft 411 kts 327°
2026-05-04 06:58 38.39476 21.85400 36193 ft 411 kts 328°
2026-05-04 06:59 38.44315 21.81514 36189 ft 412 kts 328°
2026-05-04 06:59 38.49165 21.77613 36184 ft 411 kts 327°
2026-05-04 07:01 38.68552 21.61951 36190 ft 414 kts 327°
2026-05-04 07:02 38.73416 21.58006 36189 ft 414 kts 327°
2026-05-04 07:02 38.78276 21.54058 36194 ft 414 kts 327°
2026-05-04 07:03 38.83111 21.50123 36187 ft 415 kts 327°
2026-05-04 07:03 38.87982 21.46153 36180 ft 414 kts 327°
2026-05-04 07:04 38.92847 21.42181 36184 ft 414 kts 328°
2026-05-04 07:04 38.97676 21.38232 36195 ft 414 kts 327°
2026-05-04 07:05 39.02531 21.34255 36187 ft 414 kts 327°
2026-05-04 07:05 39.07392 21.30268 36196 ft 414 kts 327°
2026-05-04 07:06 39.14684 21.24272 36198 ft 415 kts 328°
2026-05-04 07:07 39.19520 21.20288 36195 ft 415 kts 328°
2026-05-04 07:09 39.38924 21.04235 36188 ft 414 kts 327°
2026-05-04 07:09 39.43766 21.00211 36192 ft 413 kts 328°
2026-05-04 07:10 39.48603 20.96187 36192 ft 414 kts 328°
2026-05-04 07:12 39.67948 20.80021 36151 ft 415 kts 328°
2026-05-04 07:12 39.72795 20.75952 36186 ft 415 kts 328°
2026-05-04 07:13 39.77648 20.71873 36188 ft 416 kts 328°
2026-05-04 07:13 39.82470 20.67813 36190 ft 416 kts 327°
2026-05-04 07:14 39.94614 20.57555 36202 ft 417 kts 328°
2026-05-04 07:15 39.99485 20.53428 36201 ft 418 kts 328°
2026-05-04 07:15 40.04330 20.49316 36186 ft 419 kts 328°
2026-05-04 07:16 40.09143 20.45019 36172 ft 419 kts 324°
2026-05-04 07:16 40.13831 20.40496 36183 ft 419 kts 324°
2026-05-04 07:17 40.18511 20.35955 36179 ft 419 kts 324°
2026-05-04 07:17 40.23169 20.31449 36180 ft 420 kts 324°
2026-05-04 07:18 40.27871 20.26903 36176 ft 420 kts 324°
2026-05-04 07:18 40.32569 20.22354 36178 ft 419 kts 324°
2026-05-04 07:19 40.37259 20.17805 36176 ft 419 kts 324°
2026-05-04 07:19 40.41948 20.13248 36134 ft 420 kts 324°
2026-05-04 07:20 40.46592 20.08726 36163 ft 418 kts 324°
2026-05-04 07:20 40.51267 20.04168 36165 ft 419 kts 324°
2026-05-04 07:22 40.69969 19.85819 36167 ft 421 kts 324°
2026-05-04 07:23 40.74672 19.81183 36172 ft 422 kts 324°
2026-05-04 07:23 40.79366 19.76546 36159 ft 422 kts 324°
2026-05-04 07:24 40.84032 19.71928 36163 ft 422 kts 324°
2026-05-04 07:24 40.88727 19.67273 36167 ft 422 kts 324°
2026-05-04 07:26 41.07484 19.48593 36170 ft 423 kts 324°
2026-05-04 07:27 41.12171 19.43904 36162 ft 423 kts 324°
2026-05-04 07:27 41.16850 19.39215 36171 ft 422 kts 323°
2026-05-04 07:28 41.21450 19.34596 36172 ft 422 kts 323°
2026-05-04 07:28 41.25982 19.30036 36171 ft 422 kts 323°
2026-05-04 07:29 41.30397 19.25587 36166 ft 422 kts 323°
2026-05-04 07:29 41.34888 19.21053 36166 ft 421 kts 323°
2026-05-04 07:30 41.39350 19.16539 36176 ft 421 kts 323°
2026-05-04 07:30 41.43807 19.12024 36165 ft 422 kts 323°
2026-05-04 07:31 41.48326 19.07434 36160 ft 421 kts 323°
2026-05-04 07:33 41.66705 18.88612 36163 ft 422 kts 323°
2026-05-04 07:33 41.71353 18.83831 36162 ft 423 kts 323°
2026-05-04 07:34 41.75965 18.79077 36162 ft 423 kts 323°
2026-05-04 07:34 41.80613 18.74278 36147 ft 423 kts 323°
2026-05-04 07:35 41.85256 18.69475 36158 ft 422 kts 323°
2026-05-04 07:35 41.89877 18.64685 36169 ft 423 kts 323°
2026-05-04 07:36 41.94509 18.59875 36162 ft 423 kts 323°
2026-05-04 07:38 42.08649 18.40033 36145 ft 425 kts 309°
2026-05-04 07:38 42.10425 18.36882 36145 ft 426 kts 309°
2026-05-04 07:38 42.13945 18.30652 36164 ft 426 kts 309°
2026-05-04 07:39 42.17456 18.24444 36173 ft 426 kts 309°
2026-05-04 07:39 42.21032 18.18116 36156 ft 426 kts 309°
2026-05-04 07:40 42.24600 18.11789 36146 ft 427 kts 309°
2026-05-04 07:40 42.28183 18.05420 36147 ft 427 kts 309°
2026-05-04 07:41 42.31743 17.99079 36148 ft 427 kts 309°
2026-05-04 07:41 42.35324 17.92687 36150 ft 427 kts 309°
2026-05-04 07:42 42.38898 17.86294 36170 ft 427 kts 309°
2026-05-04 07:42 42.42473 17.79885 36151 ft 427 kts 309°
2026-05-04 07:43 42.46025 17.73503 36134 ft 427 kts 308°
2026-05-04 07:43 42.49596 17.67074 36156 ft 427 kts 308°
2026-05-04 07:44 42.53166 17.60635 36149 ft 427 kts 308°
2026-05-04 07:44 42.56576 17.54036 36153 ft 428 kts 305°
2026-05-04 07:45 42.59819 17.47326 36153 ft 428 kts 305°
2026-05-04 07:45 42.63076 17.40556 36152 ft 428 kts 305°
2026-05-04 07:46 42.66334 17.33795 36146 ft 428 kts 304°
2026-05-04 07:46 42.69596 17.27026 36152 ft 428 kts 304°
2026-05-04 07:47 42.72836 17.20294 36156 ft 428 kts 304°
2026-05-04 07:49 42.85839 16.93115 36154 ft 429 kts 304°
2026-05-04 07:49 42.89083 16.86296 36156 ft 429 kts 304°
2026-05-04 07:50 42.92327 16.79461 36159 ft 429 kts 304°
2026-05-04 07:50 42.95566 16.72620 36152 ft 429 kts 304°
2026-05-04 07:51 42.98687 16.66015 36145 ft 430 kts 303°
2026-05-04 07:51 43.01923 16.59149 36154 ft 430 kts 303°
2026-05-04 07:52 43.05157 16.52274 36152 ft 430 kts 303°
2026-05-04 07:52 43.08387 16.45388 36150 ft 430 kts 303°
2026-05-04 07:54 43.21257 16.17797 36147 ft 431 kts 303°
2026-05-04 07:55 43.24454 16.10902 36150 ft 431 kts 303°
2026-05-04 07:55 43.27669 16.03953 36145 ft 431 kts 303°
2026-05-04 07:56 43.30878 15.96999 36137 ft 432 kts 302°
2026-05-04 07:56 43.34090 15.90025 36141 ft 432 kts 302°
2026-05-04 07:57 43.37300 15.83034 36134 ft 433 kts 302°
2026-05-04 07:57 43.40489 15.76076 36139 ft 433 kts 302°
2026-05-04 07:58 43.43693 15.69067 36134 ft 433 kts 302°
2026-05-04 07:58 43.46899 15.62038 36122 ft 434 kts 302°
2026-05-04 07:59 43.50103 15.54997 36131 ft 434 kts 302°
2026-05-04 07:59 43.53284 15.47988 36134 ft 434 kts 301°
2026-05-04 08:00 43.56485 15.40917 36132 ft 435 kts 301°
2026-05-04 08:02 43.69253 15.12546 36133 ft 437 kts 301°
2026-05-04 08:02 43.72449 15.05401 36134 ft 437 kts 301°
2026-05-04 08:03 43.75643 14.98242 36130 ft 437 kts 301°
2026-05-04 08:03 43.78813 14.91121 36127 ft 438 kts 301°
2026-05-04 08:04 43.82000 14.83944 36131 ft 438 kts 301°
2026-05-04 08:04 43.85188 14.76745 36134 ft 439 kts 301°
2026-05-04 08:05 43.88375 14.69532 36130 ft 439 kts 300°
2026-05-04 08:05 43.91559 14.62308 36131 ft 439 kts 300°
2026-05-04 08:06 43.94720 14.55116 36130 ft 439 kts 300°
2026-05-04 08:06 43.97899 14.47868 36128 ft 439 kts 300°
2026-05-04 08:08 44.10537 14.18863 36123 ft 439 kts 300°
2026-05-04 08:11 44.24690 13.86033 36118 ft 441 kts 300°
2026-05-04 08:11 44.29408 13.75004 36120 ft 442 kts 300°
2026-05-04 08:12 44.32553 13.67628 36118 ft 442 kts 300°
2026-05-04 08:12 44.35674 13.60288 36115 ft 443 kts 300°
2026-05-04 08:13 44.38819 13.52877 36120 ft 444 kts 299°
2026-05-04 08:13 44.41890 13.45398 36124 ft 443 kts 295°
2026-05-04 08:14 44.44330 13.37469 36119 ft 443 kts 291°
2026-05-04 08:16 44.53805 13.05646 36120 ft 445 kts 291°
2026-05-04 08:16 44.56187 12.97639 36118 ft 445 kts 291°
2026-05-04 08:17 44.58562 12.89628 36122 ft 445 kts 291°
2026-05-04 08:17 44.60930 12.81614 36122 ft 445 kts 291°
2026-05-04 08:19 44.70352 12.49470 36122 ft 446 kts 291°
2026-05-04 08:20 44.72685 12.41444 36119 ft 447 kts 291°
2026-05-04 08:20 44.75034 12.33343 36120 ft 447 kts 291°
2026-05-04 08:21 44.77374 12.25243 36112 ft 447 kts 290°
2026-05-04 08:21 44.79712 12.17122 36121 ft 448 kts 290°
2026-05-04 08:22 44.82032 12.09039 36114 ft 448 kts 290°
2026-05-04 08:24 44.91337 11.76351 36127 ft 450 kts 290°
2026-05-04 08:24 44.93638 11.68200 36128 ft 450 kts 290°
2026-05-04 08:25 44.95949 11.59988 36129 ft 450 kts 290°
2026-05-04 08:25 44.98256 11.51763 36141 ft 450 kts 290°
2026-05-04 08:27 45.07399 11.18882 36108 ft 449 kts 290°
2026-05-04 08:28 45.09653 11.10706 36105 ft 449 kts 289°
2026-05-04 08:28 45.11921 11.02454 36102 ft 449 kts 289°
2026-05-04 08:29 45.14179 10.94207 36104 ft 449 kts 289°
2026-05-04 08:31 45.23143 10.61191 36109 ft 450 kts 289°
2026-05-04 08:33 45.32026 10.28024 36112 ft 450 kts 289°
2026-05-04 08:35 45.40806 9.94769 36098 ft 450 kts 288°
2026-05-04 08:35 45.42977 9.86474 36108 ft 450 kts 288°
2026-05-04 08:37 45.49503 9.61361 36210 ft 451 kts 288°
2026-05-04 08:37 45.50584 9.57175 36213 ft 451 kts 288°
2026-05-04 08:38 45.52733 9.48833 36212 ft 451 kts 288°
2026-05-04 08:38 45.54888 9.40434 36212 ft 451 kts 288°
2026-05-04 08:40 45.63445 9.06862 36130 ft 450 kts 290°
2026-05-04 08:41 45.66345 8.98910 36137 ft 454 kts 300°
2026-05-04 08:41 45.70102 8.91608 36131 ft 456 kts 304°
2026-05-04 08:42 45.73969 8.84398 36142 ft 457 kts 304°
2026-05-04 08:42 45.77795 8.77207 36141 ft 457 kts 304°
2026-05-04 08:43 45.81620 8.69948 36143 ft 457 kts 304°
2026-05-04 08:43 45.85444 8.62650 36153 ft 457 kts 303°
2026-05-04 08:44 45.89260 8.55345 36132 ft 458 kts 303°
2026-05-04 08:46 46.04480 8.26033 36123 ft 459 kts 303°
2026-05-04 08:46 46.08248 8.18733 36120 ft 456 kts 303°
2026-05-04 08:47 46.12026 8.11392 36114 ft 455 kts 303°
2026-05-04 08:47 46.15793 8.04055 36113 ft 454 kts 303°
2026-05-04 08:48 46.19521 7.96775 36129 ft 454 kts 302°
2026-05-04 08:48 46.23280 7.89407 36091 ft 456 kts 302°
2026-05-04 08:49 46.27041 7.82016 36086 ft 457 kts 302°
2026-05-04 08:50 46.40159 7.56106 36023 ft 456 kts 302°
2026-05-04 08:51 46.43890 7.48693 36029 ft 455 kts 302°
2026-05-04 08:51 46.47610 7.41280 36023 ft 454 kts 302°
2026-05-04 08:52 46.51321 7.33865 36024 ft 454 kts 302°
2026-05-04 08:52 46.55001 7.26495 36030 ft 454 kts 301°
2026-05-04 08:54 46.69808 6.96633 36028 ft 457 kts 301°
2026-05-04 08:55 46.73512 6.89113 36041 ft 457 kts 301°
2026-05-04 08:55 46.77212 6.81583 36043 ft 457 kts 301°
2026-05-04 09:01 47.15819 6.01746 36053 ft 460 kts 300°
2026-05-04 09:01 47.19491 5.94031 36049 ft 461 kts 300°
2026-05-04 09:02 47.23160 5.86301 36043 ft 461 kts 300°
2026-05-04 09:02 47.26799 5.78614 36066 ft 461 kts 300°
2026-05-04 09:03 47.30459 5.70857 36053 ft 462 kts 299°
2026-05-04 09:03 47.34128 5.63060 36049 ft 463 kts 299°
2026-05-04 09:04 47.37803 5.55231 36041 ft 464 kts 299°
2026-05-04 09:04 47.41468 5.47400 36052 ft 464 kts 299°
2026-05-04 09:05 47.45105 5.39607 36053 ft 464 kts 299°
2026-05-04 09:05 47.48758 5.31753 35265 ft 471 kts 299°
2026-05-04 09:05 47.50610 5.27763 34509 ft 470 kts 298°
2026-05-04 09:06 47.52461 5.23772 33707 ft 469 kts 298°
2026-05-04 09:07 47.67099 4.99522 29643 ft 448 kts 316°
2026-05-04 09:08 47.69494 4.96591 29002 ft 444 kts 315°
2026-05-04 09:08 47.71843 4.93640 28415 ft 440 kts 315°
2026-05-04 09:08 47.74166 4.90702 27873 ft 436 kts 315°
2026-05-04 09:08 47.76461 4.87792 27581 ft 435 kts 315°
2026-05-04 09:09 47.78779 4.84848 27257 ft 440 kts 315°
2026-05-04 09:09 47.81080 4.81921 26948 ft 442 kts 315°
2026-05-04 09:09 47.83414 4.78955 26617 ft 439 kts 315°
2026-05-04 09:09 47.85726 4.76016 26294 ft 436 kts 315°
2026-05-04 09:10 47.88028 4.73088 25982 ft 434 kts 315°
2026-05-04 09:10 47.90262 4.70241 25664 ft 431 kts 315°
2026-05-04 09:10 47.92549 4.67321 25360 ft 429 kts 315°
2026-05-04 09:10 47.94813 4.64427 25064 ft 427 kts 315°
2026-05-04 09:11 47.97065 4.61544 24737 ft 426 kts 315°
2026-05-04 09:11 47.99305 4.58673 24420 ft 425 kts 316°
2026-05-04 09:11 48.01516 4.55837 24139 ft 425 kts 316°
2026-05-04 09:11 48.03761 4.52952 23818 ft 427 kts 316°
2026-05-04 09:12 48.06015 4.50050 23484 ft 428 kts 316°
2026-05-04 09:12 48.08260 4.47159 23114 ft 423 kts 316°
2026-05-04 09:14 48.23313 4.27694 21030 ft 404 kts 316°
2026-05-04 09:14 48.25431 4.24942 20753 ft 403 kts 316°
2026-05-04 09:14 48.27445 4.22064 20444 ft 398 kts 309°
2026-05-04 09:14 48.29196 4.18866 20165 ft 394 kts 304°
2026-05-04 09:15 48.30854 4.15617 19881 ft 392 kts 304°
2026-05-04 09:15 48.32541 4.12413 19592 ft 390 kts 306°
2026-05-04 09:15 48.34253 4.09257 19312 ft 388 kts 306°
2026-05-04 09:15 48.35964 4.06135 19024 ft 386 kts 307°
2026-05-04 09:17 48.49224 3.81811 16745 ft 367 kts 307°
2026-05-04 09:18 48.50815 3.78878 16482 ft 365 kts 307°
2026-05-04 09:18 48.52420 3.75914 16210 ft 364 kts 307°
2026-05-04 09:18 48.54015 3.72957 15950 ft 363 kts 306°
2026-05-04 09:18 48.55468 3.69861 15771 ft 359 kts 301°
2026-05-04 09:19 48.56784 3.66675 15590 ft 358 kts 299°
2026-05-04 09:19 48.58097 3.63483 15403 ft 358 kts 300°
2026-05-04 09:19 48.59438 3.60305 15219 ft 357 kts 301°
2026-05-04 09:19 48.60790 3.57138 15042 ft 361 kts 301°
2026-05-04 09:20 48.62143 3.53985 14818 ft 364 kts 301°
2026-05-04 09:20 48.63515 3.50786 14612 ft 361 kts 301°
2026-05-04 09:20 48.64878 3.47602 14406 ft 360 kts 301°
2026-05-04 09:20 48.66234 3.44428 14196 ft 358 kts 302°
2026-05-04 09:21 48.67577 3.41281 13970 ft 355 kts 302°
2026-05-04 09:21 48.68914 3.38144 13756 ft 353 kts 302°
2026-05-04 09:21 48.70234 3.35045 13526 ft 348 kts 302°
2026-05-04 09:21 48.71531 3.31998 13305 ft 340 kts 302°
2026-05-04 09:22 48.72794 3.29025 13111 ft 331 kts 302°
2026-05-04 09:22 48.74004 3.26173 12892 ft 323 kts 302°
2026-05-04 09:22 48.75204 3.23343 12718 ft 315 kts 302°
2026-05-04 09:22 48.76374 3.20578 12519 ft 307 kts 302°
2026-05-04 09:23 48.77512 3.17887 12353 ft 300 kts 302°
2026-05-04 09:23 48.78627 3.15250 12181 ft 294 kts 302°
2026-05-04 09:23 48.79721 3.12655 12022 ft 291 kts 302°
2026-05-04 09:23 48.80808 3.10077 11829 ft 289 kts 302°
2026-05-04 09:25 48.89210 2.93482 10666 ft 279 kts 312°
2026-05-04 09:25 48.90523 2.91326 10513 ft 279 kts 312°
2026-05-04 09:26 48.91847 2.89135 10364 ft 283 kts 312°
2026-05-04 09:26 48.93111 2.86860 10182 ft 279 kts 300°
2026-05-04 09:26 48.93670 2.84059 10016 ft 281 kts 270°
2026-05-04 09:26 48.93550 2.81115 9861 ft 280 kts 264°
2026-05-04 09:27 48.93386 2.78181 9659 ft 283 kts 264°
2026-05-04 09:27 48.93226 2.75218 9471 ft 278 kts 264°
2026-05-04 09:27 48.93068 2.72311 9308 ft 274 kts 264°
2026-05-04 09:27 48.92912 2.69444 9151 ft 272 kts 264°
2026-05-04 09:28 48.92757 2.66590 8988 ft 270 kts 264°
2026-05-04 09:28 48.92603 2.63745 8834 ft 269 kts 264°
2026-05-04 09:28 48.92448 2.60905 8659 ft 271 kts 265°
2026-05-04 09:28 48.92292 2.58019 8528 ft 276 kts 265°
2026-05-04 09:29 48.92135 2.55103 8380 ft 277 kts 265°
2026-05-04 09:29 48.91978 2.52215 8191 ft 278 kts 265°
2026-05-04 09:29 48.91817 2.49292 8023 ft 277 kts 265°
2026-05-04 09:29 48.91656 2.46379 7855 ft 276 kts 265°
2026-05-04 09:30 48.91495 2.43476 7706 ft 275 kts 265°
2026-05-04 09:30 48.91333 2.40578 7548 ft 276 kts 265°
2026-05-04 09:30 48.91170 2.37695 7375 ft 273 kts 265°
2026-05-04 09:30 48.91011 2.34854 7194 ft 266 kts 265°
2026-05-04 09:31 48.90854 2.32068 7059 ft 263 kts 265°
2026-05-04 09:31 48.90699 2.29319 6915 ft 266 kts 265°
2026-05-04 09:31 48.90538 2.26498 6764 ft 270 kts 265°
2026-05-04 09:31 48.90377 2.23670 6565 ft 265 kts 265°
2026-05-04 09:32 48.90221 2.20951 6410 ft 250 kts 265°
2026-05-04 09:32 48.90074 2.18378 6250 ft 240 kts 265°
2026-05-04 09:34 48.96966 2.15020 4020 ft 221 kts 79°
2026-05-04 09:34 48.97163 2.17327 4012 ft 221 kts 84°
2026-05-04 09:34 48.97313 2.19656 4018 ft 221 kts 86°
2026-05-04 09:34 48.97445 2.22007 3984 ft 223 kts 84°
2026-05-04 09:35 48.97620 2.24305 4012 ft 218 kts 90°
2026-05-04 09:35 48.97653 2.26596 4015 ft 217 kts 84°
2026-05-04 09:35 48.97813 2.28872 3967 ft 214 kts 89°
2026-05-04 09:35 48.97919 2.31157 3638 ft 221 kts 82°
2026-05-04 09:37 48.98615 2.46629 1895 ft 214 kts 77°
2026-05-04 09:37 48.99003 2.48692 1526 ft 188 kts 78°
2026-05-04 09:38 48.99087 2.50591 1290 ft 182 kts 92°
2026-05-04 09:38 48.99078 2.52453 901 ft 172 kts 86°
2026-05-04 09:38 48.99175 2.54163 702 ft 153 kts 84°
2026-05-04 09:38 48.99257 2.55729 520 ft 145 kts 85°
2026-05-04 09:39 48.99327 2.57210 369 ft 132 kts 84°
2026-05-04 09:39 48.99395 2.58422 357 ft 95 kts 87°
2026-05-04 09:39 48.99433 2.59193 359 ft 51 kts 85°
2026-05-04 09:39 48.99451 2.59495 357 ft 9 kts 84°
2026-05-04 09:40 48.99457 2.59590 360 ft 9 kts 85°
2026-05-04 09:40 48.99465 2.59732 357 ft 24 kts 84°
2026-05-04 09:40 48.99556 2.59950 366 ft 22 kts 25°
2026-05-04 09:40 48.99709 2.59966 359 ft 22 kts 358°
2026-05-04 09:41 48.99849 2.59964 361 ft 15 kts 11°
2026-05-04 09:42 48.99986 2.59493 364 ft 11 kts 266°
2026-05-04 09:43 48.99979 2.59376 360 ft 11 kts 265°
2026-05-04 09:43 48.99972 2.59259 363 ft 11 kts 265°
2026-05-04 09:43 48.99966 2.59142 359 ft 11 kts 265°
2026-05-04 09:43 48.99967 2.59027 364 ft 11 kts 299°
2026-05-04 09:44 49.00033 2.58966 364 ft 11 kts 324°
2026-05-04 09:44 49.00122 2.58893 366 ft 11 kts 347°
2026-05-04 09:44 49.00173 2.58881 364 ft 5 kts
2026-05-04 09:46 49.00199 2.59015 364 ft 0 kts 85°